Date,TemperatureHighF,TemperatureAvgF,TemperatureLowF,DewpointHighF,DewpointAvgF,DewpointLowF,HumidityHigh,HumidityAvg,HumidityLow,PressureMaxIn,PressureMinIn,WindSpeedMaxMPH,WindSpeedAvgMPH,GustSpeedMaxMPH,PrecipitationSumIn
2013-3-1,33.7,30.9,27.0,30.9,26.3,21.6,91,83,75,30.00,29.81,17,4,18,0.01
2013-3-2,28.7,26.3,24.9,22.9,21.4,19.1,90,82,72,29.99,29.93,15,3,15,0.01
2013-3-3,29.3,26.1,23.3,23.8,21.3,18.4,89,82,71,30.04,29.95,15,4,15,0.00
2013-3-4,38.7,27.5,22.0,23.2,19.2,15.9,87,72,48,30.16,30.04,19,4,19,0.01
2013-3-5,50.7,32.8,16.7,26.9,18.9,12.9,91,62,23,30.14,29.73,21,3,21,0.00
2013-3-6,40.7,35.5,31.6,33.4,29.7,27.0,94,80,61,30.12,29.72,17,2,21,0.48
2013-3-7,43.3,36.0,32.8,31.8,29.7,27.3,88,78,55,30.30,30.12,16,3,16,0.02
2013-3-8,41.6,33.8,27.2,30.2,27.2,24.1,89,77,60,30.43,30.28,15,4,15,0.00
2013-3-9,58.4,39.3,21.1,33.6,24.8,18.8,94,62,27,30.45,30.21,9,1,9,0.01
2013-3-10,65.9,55.0,45.9,34.2,26.9,19.6,38,34,28,30.21,30.00,11,4,17,0.00
2013-3-11,60.2,56.0,52.7,49.0,34.3,29.3,87,45,33,30.04,29.71,28,5,28,0.09
2013-3-12,52.7,40.7,36.7,49.5,35.8,28.4,95,83,68,30.01,29.74,25,5,25,0.39
2013-3-13,38.5,32.7,27.6,32.0,26.9,19.3,92,79,53,30.14,29.94,27,7,32,0.04
2013-3-14,39.2,30.5,25.6,22.5,19.2,17.4,79,64,44,30.23,30.14,24,6,24,0.00
2013-3-15,49.4,37.6,26.0,36.1,26.8,18.1,85,65,52,30.18,29.84,22,6,23,0.00
2013-3-16,40.1,37.1,33.9,38.1,35.1,32.0,95,92,85,29.97,29.64,10,2,10,0.05
2013-3-17,36.8,32.9,28.5,32.7,25.0,22.3,90,73,59,30.23,29.97,15,2,15,0.00
2013-3-18,39.1,33.7,30.1,34.2,27.6,22.5,89,78,63,30.20,29.74,38,6,38,0.22
2013-3-19,47.2,39.0,30.7,41.2,28.2,17.2,95,67,32,29.99,29.73,37,8,37,0.31
2013-3-20,40.0,32.6,27.3,22.6,18.9,14.9,67,57,44,30.00,29.83,23,6,24,0.00
2013-3-21,29.0,25.1,19.3,21.0,14.1,7.5,85,64,48,29.95,29.87,20,5,22,0.00
2013-3-22,33.8,28.5,22.2,22.2,20.1,17.2,88,71,56,30.07,29.93,20,5,20,0.00
2013-3-23,46.4,31.5,18.4,27.6,21.3,16.0,92,69,40,30.08,30.02,16,2,16,0.00
2013-3-24,43.2,33.0,23.9,28.7,23.2,19.3,85,68,46,30.05,29.57,18,3,18,0.00
2013-3-25,36.0,33.3,31.1,33.5,30.7,27.0,95,90,74,29.76,29.48,20,3,20,0.38
2013-3-26,43.2,36.0,30.3,33.6,31.2,28.6,95,83,60,30.09,29.75,15,3,15,0.22
2013-3-27,43.5,36.3,32.3,32.3,30.1,25.4,93,80,51,30.18,30.07,19,5,19,0.03
2013-3-28,42.0,37.3,32.8,34.5,31.2,29.1,94,79,65,30.29,30.14,16,4,16,0.05
2013-3-29,52.1,42.6,35.0,36.3,29.3,23.8,86,62,36,30.29,30.17,14,2,14,0.00
2013-3-30,56.2,41.1,24.9,31.0,25.4,22.3,93,58,27,30.27,30.06,7,1,12,0.00
2013-3-31,51.2,46.9,38.2,46.0,36.3,21.6,93,69,41,30.06,29.73,14,3,14,0.13